This demonstration page uses our WeatherBlox Daily Observations layout. Learn more.

Left ArrowRight Arrow

Hourly Observations for September 9, 2019

Temp ( °F °C ) Dew Point ( °F °C ) Humidity (%) Winds ( mph kmh ) Pressure ( in mb ) Visibility ( mi km ) Precip ( " mm )
12:54 am 00:54 Cloudy 71 21.7 67 19.4 87 87 ESE 8 13 29.92 1013 10 16 0.00 0.00
1:54 am 01:54 Cloudy 71 21.7 68 20 90 90 E 12 19 29.91 1013 9 14 0.00 0.00
2:52 am 02:52 Cloudy with Mist and Fog 72 22 68 20 88 88 SE 8 13 29.88 1012 6 10 0.00 0.00
2:54 am 02:54 Cloudy 71 21.7 68 20 90 90 SE 9 15 29.89 1012 7 11 0.00 0.00
3:19 am 03:19 Cloudy 72 22.2 69 20.6 91 91 ESE 12 19 29.87 1011 7 11 0.00 0.00
3:54 am 03:54 Cloudy 72 22.2 69 20.6 91 91 SE 12 19 29.89 1012 8 13 0.00 0.00
4:33 am 04:33 Mostly Cloudy 73 22.8 69 20.6 87 87 SE 9 15 29.87 1011 9 14 0.00 0.00
4:54 am 04:54 Cloudy 73 22.8 70 21.1 90 90 SE 8 13 29.87 1012 10 16 0.00 0.00
6:54 am 06:54 Cloudy with Light Rain 74 23.3 65 18.3 74 74 SSW 14 22 29.87 1012 10 16 0.00 0.00
7:54 am 07:54 Mostly Cloudy with Light Rain 71 21.7 66 18.9 84 84 S 14 22 29.89 1012 5 8 0.01 0.25
8:54 am 08:54 Mostly Sunny 72 22.2 67 19.4 84 84 S 5 7 29.86 1011 10 16 0.04 1.02
9:54 am 09:54 Mostly Sunny 79 26.1 67 19.4 67 67 SSE 14 22 29.85 1011 10 16 0.00 0.00
10:54 am 10:54 Partly Cloudy 80 26.7 68 20 67 67 SSE 18 30 29.83 1010 10 16 0.00 0.00
11:54 am 11:54 Mostly Cloudy 79 26.1 67 19.4 67 67 SSW 9 15 29.86 1011 9 14 0.00 0.00
12:54 pm 12:54 Sunny 79 26.1 68 20 69 69 SSW 14 22 29.85 1011 10 16 0.00 0.00
1:54 pm 13:54 Mostly Cloudy 78 25.6 68 20 71 71 SSW 10 17 29.85 1011 10 16 0.00 0.00
2:54 pm 14:54 Mostly Cloudy 81 27.2 68 20 65 65 S 16 26 29.81 1009 10 16 0.00 0.00
3:54 pm 15:54 Sunny 81 27.2 68 20 65 65 S 14 22 29.80 1009 10 16 0.00 0.00
4:54 pm 16:54 Sunny 80 26.7 66 18.9 62 62 S 18 30 29.80 1009 10 16 0.00 0.00
5:54 pm 17:54 Sunny 80 26.7 66 18.9 62 62 S 16 26 29.81 1010 10 16 0.00 0.00
6:54 pm 18:54 Mostly Sunny 77 25 66 18.9 69 69 S 14 22 29.81 1010 10 16 0.00 0.00
7:54 pm 19:54 Cloudy 74 23.3 66 18.9 76 76 S 6 9 29.83 1010 10 16 0.00 0.00
8:54 pm 20:54 Mostly Cloudy 73 22.8 67 19.4 81 81 S 6 9 29.83 1010 10 16 0.00 0.00
9:54 pm 21:54 Mostly Cloudy 72 22.2 67 19.4 84 84 SSE 5 7 29.83 1010 10 16 0.00 0.00
10:22 pm 22:22 Mostly Cloudy with Nearby Thunderstorms 73 22.8 67 19.4 81 81 SSE 5 7 29.82 1010 10 16 0.00 0.00
10:43 pm 22:43 Mostly Cloudy 73 22.8 67 19.4 81 81 SSE 8 13 29.82 1010 10 16 0.00 0.00
10:54 pm 22:54 Mostly Clear 73 22.8 67 19.4 81 81 S 8 13 29.82 1010 10 16 0.00 0.00
11:03 pm 23:03 Partly Cloudy with Nearby Thunderstorms 73 22.8 67 19.4 81 81 S 8 13 29.82 1010 10 16 0.00 0.00
11:30 pm 23:30 Partly Cloudy 72 22.2 67 19.4 84 84 NNE 7 11 29.84 1010 10 16 0.00 0.00
11:54 pm 23:54 Partly Cloudy 74 23.3 66 18.9 76 76 S 10 17 29.84 1011 10 16 0.00 0.00

Powered by AerisWeather